VINASAT-1

Last updated on Sun Jul 26 2026 00:03:03 GMT+0000 (Coordinated Universal Time)

1 32767U 08018A 26206.54211402 -.00000323 00000+0 00000+0 0 9994 2 32767 0.0513 268.1022 0001901 224.3316 137.9077 1.00272298 66972
UTC large
Height (km)
Speed (km/s)
/
Latitude / Longitude
Inclination (degrees)
Orbital Period (minutes)
Azimuth
Elevation
Range (km)
Doppler Factor

Next 0 passes for location: London (51.5072 / 0.1276)

No passes found over London.
VINASAT-1